Tracking 35275 objects as of 9-Sep-2026
HD Live streaming from Space Station
objects crossing your sky now

STARLINK-34102

Track STARLINK-34102 now!
10-day predictions
STARLINK-34102 is classified as:


NORAD ID: 63806
Int'l Code: 2025-092C
Launch date: May 4, 2025
Source: United States (US)
Launch site: AIR FORCE EASTERN TEST RANGE (AFETR)
Your satellite tracking list
Your tracking list is empty




NASA's NSSDC Master Catalog

Two Line Element Set (TLE):
1 63806U 25092C   26251.00605582  .00015933  00000-0  58682-3 0  9996
2 63806  42.9947 223.2550 0001326 253.8747 106.1959 15.27603503 76542
Source of the keplerian elements: AFSPC